POLAR BEAR [?]

Last updated on Wed Jun 28 2023 00:03:29 GMT+0000 (Coordinated Universal Time)

1 17070U 86088A 23178.35849059 .00000109 00000+0 10206-3 0 9990 2 17070 89.5837 220.8398 0037535 315.6033 54.4053 13.74950756836468
UTC large
Height (km)
Speed (km/s)
/
Latitude / Longitude
Inclination (degrees)
Orbital Period (minutes)
Azimuth
Elevation
Range (km)
Doppler Factor

Next 0 passes for location: London (51.5072 / 0.1276)

Sorry there are no passes over London.